Location: Montclair
(37.8322°N, 122.2092°W)
Time: 16:16:11
(UTC+00:00)

Cosmos 1339 Rocket - Pass Details

Date: 08 September 2024
Orbit: 942 x 1005 km, 82.9° (Epoch: 08 October)

Event Time Altitude Azimuth Distance (km) Brightness Sun altitude
Exits shadow 12:11:12 - 186° (S) 3,269 7.0 -18.7°
Reaches altitude 10° 12:12:48 10° 187° (S) 2,659 6.5 -18.4°
Maximum altitude 12:18:53 86° 276° (W) 950 4.4 -17.3°
Drops below altitude 10° 12:24:59 10° 6° (N) 2,666 7.1 -16.2°
Sets 12:27:28 0° 7° (N) 3,617 7.9 -15.7°
